Terminal Aerodrome Forecast
Issued by NWS Newport/Morehead City, NC

Home | Current Version | Previous Version | Graphics & Text | Print | Product List | Glossary On
Versions: 1 2 3 4 5 6 7 8 9 10 11 12 13 14
000
FTUS42 KMHX 210500 RRA
TAFEWN
TAF
KEWN 210543Z 2106/2206 01013G23KT P6SM OVC020
     FM211400 01010G17KT P6SM SCT025 BKN040
     FM212000 01006KT P6SM SKC=

USA.gov is the U.S. government's official web portal to all federal, state and local government web resources and services.